Weather History for South Bend, IN

Change the Weather History Date:

Tuesday, March 15, 2011

  Actual Average Record
Temperature  
Mean Temperature 36 °F 37 °F  
Max Temperature 41 °F 46 °F 81 °F (2012)
Min Temperature 30 °F 28 °F 2 °F (1932)
Degree Days  
Heating Degree Days 29 28  
Month to date heating degree days 455 458  
Since 1 July heating degree days 5304 5147  
Cooling Degree Days 0 0  
Month to date cooling degree days 0 0  
Year to date cooling degree days 0 0  
Moisture  
Dew Point 30 °F    
Average Humidity 78    
Maximum Humidity 100    
Minimum Humidity 56    
Precipitation  
Precipitation 0.03 in 0.07 in 1.63 in (1929)
Month to date precipitation 1.41 1.13  
Year to date precipitation 7.08 5.37  
Snow  
Snow 0.00 in - - ()
Month to date snowfall 1.2  
Snow Depth 0.00 in    
Sea Level Pressure  
Sea Level Pressure 30.12 in    
Wind  
Wind Speed 7 mph (East)    
Max Wind Speed 14 mph    
Max Gust Speed 16 mph    
Visibility 7 miles    
Events Rain    
T = Trace of Precipitation, MM = Missing Value Source: NWS Daily Summary

Daily Weather History Graph

Daily Weather History Graph

Search for Another Location

Airport:

Trip Planner

Search our weather history database for the weather conditions in past years. The results will help you decide how hot, cold, wet, or windy it might be!

Date:

Astronomy

Mar. 15, 2011 Rise Set
Actual Time 7:57 AM EDT 7:51 PM EDT
Civil Twilight 7:29 AM EDT 8:19 PM EDT
Nautical Twilight 6:57 AM EDT 8:51 PM EDT
Astronomical Twilight 6:24 AM EDT 9:24 PM EDT
Moon 3:14 PM EDT (3/15) 5:07 AM EDT (3/15)
Length of Visible Light 12h 49m
Length of Day
11h 54m
Waxing Gibbous, 77% of the Moon is Illuminated
Mar 15
Waxing Gibbous
Mar 19
Full
Mar 26
Last Quarter
Apr 3
New
Apr 11
First Quarter

Hourly Weather History & Observations

Time (EDT) Temp. Windchill Dew Point Humidity Pressure Visibility Wind Dir Wind Speed Gust Speed Precip Events Conditions
12:54 AM 35.1 °F 27.9 °F 21.9 °F 59% 30.28 in 10.0 mi East 9.2 mph 20.7 mph N/A   Clear
1:54 AM 33.1 °F 24.4 °F 21.9 °F 64% 30.28 in 10.0 mi East 11.5 mph - N/A   Clear
2:54 AM 32.0 °F 25.6 °F 23.0 °F 69% 30.25 in 10.0 mi East 6.9 mph - N/A   Clear
3:54 AM 30.9 °F 24.3 °F 23.0 °F 72% 30.24 in 10.0 mi East 6.9 mph - N/A   Clear
4:54 AM 30.9 °F 22.2 °F 21.9 °F 69% 30.21 in 10.0 mi East 10.4 mph - N/A   Clear
5:54 AM 30.9 °F 22.8 °F 21.0 °F 67% 30.20 in 10.0 mi East 9.2 mph - N/A   Clear
6:54 AM 30.9 °F 23.5 °F 21.0 °F 67% 30.19 in 10.0 mi East 8.1 mph - N/A   Partly Cloudy
7:54 AM 32.0 °F 24.8 °F 21.9 °F 66% 30.18 in 10.0 mi East 8.1 mph - N/A   Mostly Cloudy
8:54 AM 33.1 °F 26.1 °F 23.0 °F 66% 30.18 in 10.0 mi ENE 8.1 mph - N/A   Mostly Cloudy
9:54 AM 34.0 °F 26.0 °F 23.0 °F 64% 30.17 in 10.0 mi East 10.4 mph - N/A   Mostly Cloudy
10:54 AM 36.0 °F 31.1 °F 24.1 °F 62% 30.16 in 10.0 mi East 5.8 mph - N/A   Overcast
11:05 AM 35.6 °F 29.9 °F 24.8 °F 65% 30.13 in 10.0 mi East 6.9 mph - N/A   Overcast
11:54 AM 37.0 °F 31.6 °F 28.0 °F 70% 30.14 in 10.0 mi East 6.9 mph - 0.00 in Rain Light Rain
12:31 PM 37.4 °F 32.8 °F 28.4 °F 70% 30.10 in 10.0 mi East 5.8 mph - 0.01 in Rain Light Rain
12:54 PM 36.0 °F 30.3 °F 30.9 °F 82% 30.12 in 8.0 mi East 6.9 mph - 0.02 in Rain Light Rain
1:50 PM 37.4 °F 30.3 °F 33.8 °F 87% 30.07 in 10.0 mi East 10.4 mph - 0.01 in   Overcast
1:54 PM 37.9 °F 31.5 °F 34.0 °F 86% 30.09 in 10.0 mi East 9.2 mph - 0.01 in   Overcast
2:54 PM 39.9 °F 34.5 °F 35.1 °F 83% 30.06 in 10.0 mi ENE 8.1 mph - N/A   Overcast
3:54 PM 41.0 °F 36.4 °F 35.1 °F 79% 30.04 in 10.0 mi ENE 6.9 mph - N/A   Overcast
4:54 PM 39.9 °F 35.8 °F 35.1 °F 83% 30.06 in 7.0 mi East 5.8 mph - N/A   Overcast
5:54 PM 39.9 °F 37.8 °F 36.0 °F 86% 30.04 in 6.0 mi East 3.5 mph - N/A   Overcast
6:21 PM 39.2 °F 35.0 °F 35.6 °F 87% 30.02 in 5.0 mi East 5.8 mph - N/A   Overcast
6:54 PM 39.0 °F 36.8 °F 37.0 °F 93% 30.04 in 4.0 mi East 3.5 mph - N/A   Overcast
7:54 PM 39.0 °F 34.8 °F 36.0 °F 89% 30.05 in 2.5 mi ESE 5.8 mph - N/A   Overcast
8:54 PM 37.9 °F 33.5 °F 37.0 °F 97% 30.06 in 2.5 mi South 5.8 mph - N/A   Overcast
9:36 PM 37.4 °F 33.8 °F 37.4 °F 100% 30.04 in 2.0 mi SSW 4.6 mph - N/A   Overcast
9:54 PM 37.9 °F 35.5 °F 37.0 °F 97% 30.06 in 2.0 mi South 3.5 mph - N/A   Overcast
10:54 PM 37.9 °F 34.4 °F 37.0 °F 97% 30.08 in 2.0 mi SSW 4.6 mph - N/A   Overcast
11:11 PM 37.4 °F 33.8 °F 37.4 °F 100% 30.05 in 1.0 mi SSW 4.6 mph - N/A   Overcast
11:38 PM 37.4 °F 32.8 °F 37.4 °F 100% 30.05 in 0.8 mi West 5.8 mph - N/A   Overcast
11:54 PM 37.0 °F 30.4 °F 36.0 °F 96% 30.08 in 1.8 mi West 9.2 mph - 0.00 in   Overcast